Ignatyevo Airport
UHBB : now visible

Airfield :











YOU CAN JOIN US ON...

 
LOGIN :

Register | Disclaimer

   EN    FR    IT 

 









Legend :    VFR   Marginal VFR   IFR   Intensive IFR   Very Intensive IFR
Visi :
Ceiling :
>= 8 km
>= 3000ft
5 to 8 km
1000 to 3000 ft
1500m to 5 km
500 to 1000 ft
800 to 1500m
200 to 500 ft
< 800m
< 200 ft
Symbols :   Thunderstorms  Fog  Heavy snow  Heavy precipitations  Wind > 20 kt






- Airport Elevation : 638 ft
- IATA code : BQS


UHBB - Ignatyevo

CURRENT METAR :
  • 041400Z 29004MPS 9999 SCT033 M07/M13 Q1012 R36/090060 NOSIG RMK QFE741/0989

EXPIRED METARs :
  • 041300Z 28004MPS 9999 SCT033 M07/M13 Q1012 R36/090060 NOSIG RMK QFE741/0989
  • 041200Z 27003MPS 9999 SCT033 M07/M13 Q1012 R36/090060 NOSIG RMK QFE741/0988

TAF TAF UHBB
Valid from the 04 at 12:00 until the 05 at 12:00 UTC


041040Z 0412/0512 26003G08MPS 9999 SCT033
UHBB FIR / Asia



MET'MAP, your aeronautical weather chart ! - Copyright ORBIFLY December 2007 - Disclaimer

ORBIFLY MET'MAP TEAM :

Programming & Development : Alexandra Zaïnal
Concept & original design : Baudouin d'Aumeries
Assistance for programming : Marc-Olivier Méhu
Technical & hardware support : Manuel Goepfert

Contact : metmap@orbifly.com




SOURCES & CREDITS :

   NOAA       Earth
Advisory